This is the latest recevied weather packets stored in our database for station/object N2ZVN. If no packets are shown the sender has not sent any weather packets the latest 10 day(s).
| Time | Temp. | Humidity | Pressure | Rain* | Wind** | Luminosity | Snow |
|---|---|---|---|---|---|---|---|
| 1777623652 | 4.44° C | 85% | 1013.9 hPa | 0 mm | - | 0 W/m² | - |
| 1777623350 | 4.44° C | 82% | 1014 hPa | 0 mm | - | 0 W/m² | - |
| 1777623047 | 4.44° C | 79% | 1014 hPa | 0 mm | - | 0 W/m² | - |
| 1777622744 | 4.44° C | 82% | 1013.9 hPa | 0 mm | - | 0 W/m² | - |
| 1777622440 | 4.44° C | 83% | 1013.8 hPa | 0 mm | - | 0 W/m² | - |
| 1777622137 | 4.44° C | 79% | 1013.9 hPa | 0 mm | - | 0 W/m² | - |
| 1777621832 | 5° C | 75% | 1013.8 hPa | 0 mm | - | 0 W/m² | - |
| 1777621529 | 5° C | 76% | 1013.8 hPa | 0 mm | - | 0 W/m² | - |
| 1777621226 | 5° C | 79% | 1013.8 hPa | 0 mm | - | 0 W/m² | - |
| 1777620922 | 5° C | 79% | 1013.9 hPa | 0 mm | - | 0 W/m² | - |
| 1777620617 | 5° C | 82% | 1013.8 hPa | 0 mm | - | 0 W/m² | - |
| 1777620314 | 5° C | 82% | 1013.8 hPa | 0 mm | - | 0 W/m² | - |
| 1777620011 | 5° C | 83% | 1013.7 hPa | 0 mm | - | 0 W/m² | - |
| 1777619708 | 5° C | 82% | 1013.8 hPa | 0 mm | - | 0 W/m² | - |
| 1777619407 | 5° C | 76% | 1013.9 hPa | 0 mm | - | 0 W/m² | - |
| 1777619102 | 5° C | 71% | 1014 hPa | 0 mm | - | 0 W/m² | - |
| 1777618796 | 5° C | 74% | 1014 hPa | 0 mm | - | 0 W/m² | - |
| 1777618491 | 5° C | 75% | 1014 hPa | 0 mm | - | 0 W/m² | - |
| 1777618189 | 5° C | 78% | 1013.9 hPa | 0 mm | - | 0 W/m² | - |
| 1777617885 | 5° C | 78% | 1013.7 hPa | 0 mm | - | 0 W/m² | - |
| 1777617580 | 5° C | 80% | 1014 hPa | 0 mm | - | 0 W/m² | - |
| 1777617277 | 5° C | 79% | 1013.9 hPa | 0 mm | - | 0 W/m² | - |
| 1777616974 | 5° C | 72% | 1014.1 hPa | 0 mm | - | 0 W/m² | - |
| 1777616670 | 5° C | 73% | 1014 hPa | 0 mm | - | 0 W/m² | - |
| 1777616365 | 5° C | 76% | 1013.8 hPa | 0 mm | - | 0 W/m² | - |
* Rain latest hour (hover to see other rain measurements)
** Current wind speed in m/s (hover to see current wind gust speed)